TimeEST,TemperatureF,Dew PointF,Humidity,Sea Level PressureIn,VisibilityMPH,Wind Direction,Wind SpeedMPH,Gust SpeedMPH,PrecipitationIn,Events,Conditions,WindDirDegrees,DateUTC
12:15 AM,46.4,44.6,93,30.06,10.0,NNE,6.9,-,N/A,,Clear,30,2012-11-06 05:15:00
12:35 AM,46.4,44.6,93,30.06,10.0,NNE,6.9,-,N/A,,Clear,20,2012-11-06 05:35:00
12:55 AM,46.4,44.6,93,30.05,10.0,NNE,5.8,-,N/A,,Clear,30,2012-11-06 05:55:00
1:15 AM,46.4,44.6,93,30.05,10.0,NNE,6.9,-,N/A,,Clear,30,2012-11-06 06:15:00
1:35 AM,46.4,42.8,87,30.04,10.0,NNE,8.1,-,N/A,,Clear,30,2012-11-06 06:35:00
1:55 AM,44.6,42.8,93,30.04,10.0,NNE,8.1,-,N/A,,Clear,30,2012-11-06 06:55:00
2:15 AM,44.6,42.8,93,30.04,10.0,NNE,6.9,-,N/A,,Clear,30,2012-11-06 07:15:00
2:35 AM,44.6,42.8,93,30.04,10.0,NNE,6.9,-,N/A,,Clear,20,2012-11-06 07:35:00
2:55 AM,44.6,42.8,93,30.02,10.0,NNE,8.1,-,N/A,,Clear,30,2012-11-06 07:55:00
3:35 AM,44.6,42.8,93,30.03,10.0,NNE,6.9,-,N/A,,Clear,20,2012-11-06 08:35:00
4:15 AM,44.6,42.8,93,30.02,10.0,NE,8.1,-,N/A,,Clear,40,2012-11-06 09:15:00
4:35 AM,44.6,42.8,93,30.01,10.0,NNE,10.4,-,0.01,,Clear,30,2012-11-06 09:35:00
4:55 AM,44.6,42.8,93,30.01,10.0,NNE,9.2,-,0.01,,Clear,30,2012-11-06 09:55:00
5:15 AM,44.6,42.8,93,30.00,10.0,NNE,11.5,-,N/A,,Clear,30,2012-11-06 10:15:00
5:35 AM,44.6,42.8,93,30.03,10.0,NNE,9.2,-,N/A,,Scattered Clouds,20,2012-11-06 10:35:00
5:55 AM,44.6,42.8,93,30.03,10.0,NNE,9.2,-,N/A,,Mostly Cloudy,30,2012-11-06 10:55:00
6:15 AM,44.6,41.0,87,30.03,10.0,NNE,8.1,-,0.01,,Overcast,20,2012-11-06 11:15:00
6:35 AM,44.6,41.0,87,30.04,10.0,North,8.1,-,0.01,,Overcast,10,2012-11-06 11:35:00
6:55 AM,44.6,37.4,76,30.03,10.0,NNE,11.5,16.1,0.01,,Mostly Cloudy,20,2012-11-06 11:55:00
7:15 AM,44.6,37.4,76,30.03,10.0,NNE,10.4,-,N/A,,Scattered Clouds,20,2012-11-06 12:15:00
7:35 AM,44.6,37.4,76,30.05,10.0,North,5.8,-,N/A,,Mostly Cloudy,350,2012-11-06 12:35:00
7:55 AM,44.6,37.4,76,30.04,10.0,NNE,8.1,-,N/A,,Overcast,20,2012-11-06 12:55:00
8:15 AM,44.6,37.4,76,30.04,10.0,NNE,8.1,-,N/A,Rain,Light Rain,20,2012-11-06 13:15:00
8:35 AM,42.8,39.2,87,30.05,10.0,North,5.8,-,0.01,Rain,Light Rain,10,2012-11-06 13:35:00
8:55 AM,42.8,41.0,93,30.05,10.0,North,6.9,-,0.01,Rain,Light Rain,360,2012-11-06 13:55:00
9:15 AM,42.8,42.8,100,30.03,10.0,North,9.2,-,N/A,Rain,Light Rain,360,2012-11-06 14:15:00
9:35 AM,42.8,42.8,100,30.01,10.0,NE,10.4,-,N/A,Rain,Light Rain,40,2012-11-06 14:35:00
9:55 AM,42.8,42.8,100,30.01,10.0,NNE,9.2,-,N/A,Rain,Rain,20,2012-11-06 14:55:00
10:15 AM,42.8,42.8,100,29.99,10.0,NNE,9.2,-,0.01,,Drizzle,30,2012-11-06 15:15:00
10:35 AM,44.6,44.6,100,29.98,10.0,NE,9.2,-,0.01,Rain,Light Rain,50,2012-11-06 15:35:00
10:55 AM,44.6,44.6,100,30.02,10.0,NNW,6.9,-,0.01,,Light Drizzle,330,2012-11-06 15:55:00
11:15 AM,44.6,44.6,100,30.01,7.0,NW,4.6,-,N/A,,Overcast,320,2012-11-06 16:15:00
11:35 AM,44.6,44.6,100,29.99,10.0,NNW,8.1,-,N/A,,Overcast,340,2012-11-06 16:35:00
11:55 AM,44.6,44.6,100,29.98,10.0,North,6.9,-,N/A,,Overcast,360,2012-11-06 16:55:00
12:15 PM,44.6,44.6,100,29.97,10.0,North,6.9,-,0.01,,Overcast,360,2012-11-06 17:15:00
12:35 PM,44.6,44.6,100,29.95,10.0,North,10.4,-,0.01,,Overcast,360,2012-11-06 17:35:00
12:55 PM,46.4,46.4,100,29.94,10.0,North,9.2,-,0.01,,Overcast,350,2012-11-06 17:55:00
1:15 PM,48.2,46.4,93,29.93,10.0,North,13.8,-,N/A,,Mostly Cloudy,10,2012-11-06 18:15:00
1:35 PM,48.2,44.6,87,29.93,10.0,North,12.7,-,0.01,,Overcast,360,2012-11-06 18:35:00
1:55 PM,50.0,44.6,82,29.92,10.0,North,9.2,-,0.01,,Mostly Cloudy,360,2012-11-06 18:55:00
2:15 PM,50.0,44.6,82,29.91,10.0,NNE,10.4,-,N/A,,Scattered Clouds,30,2012-11-06 19:15:00
2:35 PM,51.8,44.6,76,29.91,10.0,North,8.1,-,N/A,,Scattered Clouds,10,2012-11-06 19:35:00
2:55 PM,51.8,44.6,76,29.91,10.0,North,6.9,-,N/A,,Scattered Clouds,360,2012-11-06 19:55:00
3:15 PM,50.0,44.6,82,29.91,10.0,NNE,10.4,-,0.01,,Scattered Clouds,30,2012-11-06 20:15:00
3:35 PM,50.0,42.8,76,29.92,10.0,North,8.1,-,0.01,,Scattered Clouds,360,2012-11-06 20:35:00
3:55 PM,50.0,42.8,76,29.93,10.0,North,9.2,-,0.01,,Mostly Cloudy,10,2012-11-06 20:55:00
4:15 PM,50.0,42.8,76,29.92,10.0,North,5.8,-,N/A,,Mostly Cloudy,360,2012-11-06 21:15:00
4:35 PM,50.0,42.8,76,29.92,10.0,North,9.2,-,0.01,,Mostly Cloudy,10,2012-11-06 21:35:00
5:15 PM,48.2,42.8,82,29.90,10.0,North,10.4,-,N/A,,Clear,10,2012-11-06 22:15:00
5:35 PM,46.4,42.8,87,29.92,10.0,NNW,8.1,-,N/A,,Clear,340,2012-11-06 22:35:00
5:55 PM,46.4,42.8,87,29.93,10.0,NNW,5.8,-,N/A,,Scattered Clouds,340,2012-11-06 22:55:00
6:35 PM,46.4,42.8,87,29.93,10.0,North,5.8,-,0.01,,Mostly Cloudy,350,2012-11-06 23:35:00
6:55 PM,44.6,42.8,93,29.93,10.0,North,4.6,-,0.01,,Mostly Cloudy,10,2012-11-06 23:55:00
7:15 PM,44.6,42.8,93,29.93,10.0,North,4.6,-,N/A,,Clear,10,2012-11-07 00:15:00
7:35 PM,44.6,42.8,93,29.93,10.0,NNW,4.6,-,N/A,,Scattered Clouds,330,2012-11-07 00:35:00
7:55 PM,44.6,42.8,93,29.94,10.0,NNW,4.6,-,0.01,,Mostly Cloudy,330,2012-11-07 00:55:00
8:15 PM,44.6,42.8,93,29.94,10.0,NNW,4.6,-,N/A,,Scattered Clouds,340,2012-11-07 01:15:00
8:35 PM,42.8,41.0,93,29.94,10.0,NNW,5.8,-,N/A,,Scattered Clouds,330,2012-11-07 01:35:00
8:55 PM,42.8,41.0,93,29.93,10.0,North,8.1,-,N/A,,Clear,360,2012-11-07 01:55:00
9:15 PM,42.8,41.0,93,29.94,10.0,North,6.9,-,N/A,,Clear,350,2012-11-07 02:15:00
9:35 PM,42.8,41.0,93,29.94,10.0,NNW,6.9,-,N/A,,Clear,340,2012-11-07 02:35:00
9:55 PM,42.8,41.0,93,29.92,10.0,North,8.1,-,0.01,,Clear,10,2012-11-07 02:55:00
10:15 PM,42.8,41.0,93,29.91,10.0,North,8.1,-,N/A,,Clear,360,2012-11-07 03:15:00
10:35 PM,41.0,41.0,100,29.91,10.0,North,6.9,-,N/A,,Clear,350,2012-11-07 03:35:00
10:55 PM,41.0,41.0,100,29.90,10.0,North,4.6,-,N/A,,Clear,350,2012-11-07 03:55:00
11:15 PM,41.0,41.0,100,29.92,10.0,Calm,Calm,-,N/A,,Clear,0,2012-11-07 04:15:00
11:35 PM,39.2,39.2,100,29.92,10.0,West,3.5,-,N/A,,Clear,280,2012-11-07 04:35:00
11:55 PM,37.4,37.4,100,29.91,10.0,Calm,Calm,-,0.01,,Clear,0,2012-11-07 04:55:00